This is the latest recevied weather packets stored in our database for station/object KJ7IVE-13. If no packets are shown the sender has not sent any weather packets the latest 1 day(s).
| Time | Temp. | Humidity | Pressure | Rain* | Wind** | Luminosity | Snow |
|---|---|---|---|---|---|---|---|
| 1778004684 | 13.89° C | 10% | 1011.7 hPa | 0 mm | 4.02 m/s, 139° | 254 W/m² | - |
| 1778004379 | 13.89° C | 10% | 1011.4 hPa | 0 mm | 3.58 m/s, 181° | 251 W/m² | - |
| 1778004077 | 13.89° C | 10% | 1011.5 hPa | 0 mm | 4.47 m/s, 203° | 198 W/m² | - |
| 1778003773 | 13.33° C | 10% | 1011.6 hPa | 0 mm | 3.58 m/s, 197° | 155 W/m² | - |
| 1778003469 | 13.89° C | 10% | 1011.5 hPa | 0 mm | 2.24 m/s, 171° | 141 W/m² | - |
| 1778003166 | 13.89° C | 10% | 1011.5 hPa | 0 mm | 3.58 m/s, 169° | 105 W/m² | - |
| 1778002862 | 13.89° C | 10% | 1011.7 hPa | 0 mm | 5.36 m/s, 179° | 139 W/m² | - |
| 1778002559 | 13.89° C | 10% | 1011.6 hPa | 0 mm | 2.68 m/s, 145° | 184 W/m² | - |
| 1778002256 | 13.89° C | 10% | 1011.7 hPa | 0 mm | 1.79 m/s, 129° | 129 W/m² | - |
| 1778001954 | 13.89° C | 10% | 1011.8 hPa | 0 mm | 2.68 m/s, 192° | 115 W/m² | - |
| 1778001650 | 13.89° C | 10% | 1011.5 hPa | 0 mm | 2.68 m/s, 180° | 124 W/m² | - |
| 1778001345 | 13.89° C | 10% | 1011.3 hPa | 0 mm | 4.02 m/s, 139° | 150 W/m² | - |
| 1778001042 | 13.89° C | 10% | 1011.6 hPa | 0 mm | 4.02 m/s, 134° | 138 W/m² | - |
| 1778000739 | 13.89° C | 10% | 1011.4 hPa | 0 mm | 4.92 m/s, 189° | 168 W/m² | - |
| 1778000435 | 14.44° C | 10% | 1011.3 hPa | 0 mm | 4.92 m/s, 194° | 398 W/m² | - |
| 1778000131 | 13.89° C | 10% | 1011.5 hPa | 0 mm | 3.13 m/s, 142° | 444 W/m² | - |
| 1777999826 | 13.89° C | 10% | 1011.6 hPa | 0 mm | 2.68 m/s, 172° | 236 W/m² | - |
| 1777999522 | 13.89° C | 10% | 1011.4 hPa | 0 mm | 2.24 m/s, 177° | 205 W/m² | - |
| 1777999221 | 13.89° C | 10% | 1011.4 hPa | 0 mm | 2.68 m/s, 172° | 162 W/m² | - |
| 1777998919 | 13.89° C | 10% | 1011.5 hPa | 0 mm | 2.24 m/s, 173° | 156 W/m² | - |
| 1777998615 | 13.89° C | 10% | 1011.3 hPa | 0 mm | 3.13 m/s, 203° | 291 W/m² | - |
| 1777998309 | 13.89° C | 10% | 1011.4 hPa | 0 mm | 5.81 m/s, 160° | 245 W/m² | - |
| 1777998006 | 13.89° C | 10% | 1011.3 hPa | 0 mm | 5.81 m/s, 154° | 234 W/m² | - |
| 1777997702 | 13.89° C | 10% | 1011.4 hPa | 0 mm | 4.02 m/s, 197° | 189 W/m² | - |
| 1777997399 | 13.89° C | 10% | 1011.3 hPa | 0 mm | 1.79 m/s, 117° | 156 W/m² | - |
* Rain latest hour (hover to see other rain measurements)
** Current wind speed in m/s (hover to see current wind gust speed)